Time,TemperatureF,DewpointF,PressureIn,WindDirection,WindDirectionDegrees,WindSpeedMPH,WindSpeedGustMPH,Humidity,HourlyPrecipIn,Conditions,Clouds,dailyrainin,SoftwareType,DateUTC
2013-01-18 00:02:00,41.7,35.8,30.14,ENE,69,8.0,9.0,79,0.00,,,0.00,meteohub,2013-01-18 08:02:00,
2013-01-18 00:07:00,41.5,35.6,30.14,ENE,69,7.0,9.0,79,0.00,,,0.00,meteohub,2013-01-18 08:07:00,
2013-01-18 00:12:00,41.5,35.6,30.14,ENE,71,9.0,10.0,79,0.00,,,0.00,meteohub,2013-01-18 08:12:00,
2013-01-18 00:17:00,41.2,35.4,30.14,ENE,70,8.0,10.0,80,0.00,,,0.00,meteohub,2013-01-18 08:17:00,
2013-01-18 00:22:00,40.6,35.2,30.14,ENE,70,8.0,10.0,81,0.00,,,0.00,meteohub,2013-01-18 08:22:00,
2013-01-18 00:27:00,40.5,35.4,30.14,ENE,70,9.0,10.0,82,0.00,,,0.00,meteohub,2013-01-18 08:27:00,
2013-01-18 00:32:00,40.3,35.6,30.14,ENE,71,8.0,9.0,83,0.00,,,0.00,meteohub,2013-01-18 08:32:00,
2013-01-18 00:37:00,39.9,35.2,30.14,ENE,72,8.0,9.0,83,0.00,,,0.00,meteohub,2013-01-18 08:37:00,
2013-01-18 00:42:00,39.9,35.4,30.14,ENE,74,7.0,9.0,84,0.00,,,0.00,meteohub,2013-01-18 08:42:00,
2013-01-18 00:47:00,39.7,35.2,30.14,ENE,74,7.0,9.0,84,0.00,,,0.00,meteohub,2013-01-18 08:47:00,
2013-01-18 00:52:00,39.7,35.6,30.14,ENE,75,7.0,9.0,85,0.00,,,0.00,meteohub,2013-01-18 08:52:00,
2013-01-18 00:57:00,40.1,35.6,30.14,ENE,76,8.0,9.0,84,0.00,,,0.00,meteohub,2013-01-18 08:57:00,
2013-01-18 01:02:00,40.3,35.8,30.14,ENE,78,9.0,9.0,84,0.00,,,0.00,meteohub,2013-01-18 09:02:00,
2013-01-18 01:07:00,40.3,35.8,30.14,ENE,77,8.0,9.0,84,0.00,,,0.00,meteohub,2013-01-18 09:07:00,
2013-01-18 01:12:00,39.9,35.4,30.13,East,79,9.0,9.0,84,0.00,,,0.00,meteohub,2013-01-18 09:12:00,
2013-01-18 01:17:00,39.9,35.4,30.13,ENE,74,8.0,10.0,84,0.00,,,0.00,meteohub,2013-01-18 09:17:00,
2013-01-18 01:22:00,40.1,35.4,30.13,East,79,10.0,10.0,83,0.00,,,0.00,meteohub,2013-01-18 09:22:00,
2013-01-18 01:27:00,39.9,35.4,30.13,ENE,74,9.0,10.0,84,0.00,,,0.00,meteohub,2013-01-18 09:27:00,
2013-01-18 01:32:00,39.7,35.2,30.13,ENE,74,8.0,10.0,84,0.00,,,0.00,meteohub,2013-01-18 09:32:00,
2013-01-18 01:42:00,39.0,34.9,30.13,ENE,76,8.0,10.0,85,0.00,,,0.00,meteohub,2013-01-18 09:42:00,
2013-01-18 01:47:00,39.0,34.9,30.13,ENE,75,5.0,9.0,85,0.00,,,0.00,meteohub,2013-01-18 09:47:00,
2013-01-18 01:52:00,38.8,34.7,30.13,ENE,76,7.0,9.0,85,0.00,,,0.00,meteohub,2013-01-18 09:52:00,
2013-01-18 01:57:00,38.7,34.9,30.14,ENE,76,5.0,9.0,86,0.00,,,0.00,meteohub,2013-01-18 09:57:00,
2013-01-18 02:02:00,38.3,34.5,30.14,ENE,76,5.0,8.0,86,0.00,,,0.00,meteohub,2013-01-18 10:02:00,
2013-01-18 02:07:00,38.1,36.0,30.14,ENE,78,7.0,8.0,92,0.00,,,0.00,meteohub,2013-01-18 10:07:00,
2013-01-18 02:17:00,39.0,34.9,30.14,East,83,8.0,9.0,85,0.00,,,0.00,meteohub,2013-01-18 10:17:00,
2013-01-18 02:22:00,39.0,34.5,30.14,East,82,8.0,9.0,84,0.00,,,0.00,meteohub,2013-01-18 10:22:00,
2013-01-18 02:27:00,39.2,34.7,30.14,East,82,7.0,9.0,84,0.00,,,0.00,meteohub,2013-01-18 10:27:00,
2013-01-18 02:32:00,39.4,34.9,30.14,East,80,7.0,9.0,84,0.00,,,0.00,meteohub,2013-01-18 10:32:00,
2013-01-18 02:37:00,39.0,34.5,30.14,ENE,76,5.0,9.0,84,0.00,,,0.00,meteohub,2013-01-18 10:37:00,
2013-01-18 02:42:00,38.8,34.7,30.14,ENE,76,8.0,9.0,85,0.00,,,0.00,meteohub,2013-01-18 10:42:00,
2013-01-18 02:47:00,38.7,34.5,30.14,ENE,76,7.0,9.0,85,0.00,,,0.00,meteohub,2013-01-18 10:47:00,
2013-01-18 02:52:00,38.7,34.9,30.14,ENE,73,9.0,9.0,86,0.00,,,0.00,meteohub,2013-01-18 10:52:00,
2013-01-18 02:57:00,38.8,34.7,30.13,ENE,72,8.0,9.0,85,0.00,,,0.00,meteohub,2013-01-18 10:57:00,
2013-01-18 03:07:00,38.8,34.3,30.13,ENE,75,7.0,9.0,84,0.00,,,0.00,meteohub,2013-01-18 11:07:00,
2013-01-18 03:12:00,38.7,34.2,30.13,ENE,74,8.0,9.0,84,0.00,,,0.00,meteohub,2013-01-18 11:12:00,
2013-01-18 03:17:00,38.5,34.3,30.13,ENE,74,8.0,9.0,85,0.00,,,0.00,meteohub,2013-01-18 11:17:00,
2013-01-18 03:22:00,38.7,34.5,30.13,ENE,74,8.0,9.0,85,0.00,,,0.00,meteohub,2013-01-18 11:22:00,
2013-01-18 03:27:00,38.5,34.3,30.13,ENE,74,8.0,9.0,85,0.00,,,0.00,meteohub,2013-01-18 11:27:00,
2013-01-18 03:37:00,38.5,34.3,30.13,ENE,73,7.0,9.0,85,0.00,,,0.00,meteohub,2013-01-18 11:37:00,
2013-01-18 03:42:00,38.5,34.7,30.13,ENE,70,9.0,9.0,86,0.00,,,0.00,meteohub,2013-01-18 11:42:00,
2013-01-18 03:47:00,38.8,34.7,30.13,ENE,67,9.0,10.0,85,0.00,,,0.00,meteohub,2013-01-18 11:47:00,
2013-01-18 03:52:00,39.0,34.9,30.13,ENE,59,5.0,10.0,85,0.00,,,0.00,meteohub,2013-01-18 11:52:00,
2013-01-18 03:57:00,39.0,34.5,30.13,ENE,63,5.0,10.0,84,0.00,,,0.00,meteohub,2013-01-18 11:57:00,
2013-01-18 04:02:00,39.0,34.5,30.13,ENE,67,9.0,10.0,84,0.00,,,0.00,meteohub,2013-01-18 12:02:00,
2013-01-18 04:07:00,39.0,34.5,30.13,ENE,64,8.0,10.0,84,0.00,,,0.00,meteohub,2013-01-18 12:07:00,
2013-01-18 04:12:00,39.0,34.5,30.12,ENE,68,10.0,11.0,84,0.00,,,0.00,meteohub,2013-01-18 12:12:00,
2013-01-18 04:17:00,39.0,34.9,30.12,ENE,67,10.0,12.0,85,0.00,,,0.00,meteohub,2013-01-18 12:17:00,
2013-01-18 04:22:00,39.0,34.5,30.12,ENE,65,11.0,12.0,84,0.00,,,0.00,meteohub,2013-01-18 12:22:00,
2013-01-18 04:27:00,38.8,34.7,30.12,ENE,57,10.0,12.0,85,0.00,,,0.00,meteohub,2013-01-18 12:27:00,
2013-01-18 04:32:00,38.8,34.3,30.12,ENE,66,9.0,12.0,84,0.00,,,0.00,meteohub,2013-01-18 12:32:00,
2013-01-18 04:37:00,38.5,34.3,30.12,ENE,67,9.0,12.0,85,0.00,,,0.00,meteohub,2013-01-18 12:37:00,
2013-01-18 04:42:00,38.5,34.7,30.12,ENE,65,12.0,12.0,86,0.00,,,0.00,meteohub,2013-01-18 12:42:00,
2013-01-18 04:47:00,38.1,34.3,30.12,ENE,67,10.0,13.0,86,0.00,,,0.00,meteohub,2013-01-18 12:47:00,
2013-01-18 04:52:00,37.9,34.3,30.12,ENE,65,12.0,13.0,87,0.00,,,0.00,meteohub,2013-01-18 12:52:00,
2013-01-18 04:57:00,37.9,34.3,30.12,ENE,65,11.0,13.0,87,0.00,,,0.00,meteohub,2013-01-18 12:57:00,
2013-01-18 05:02:00,37.9,34.3,30.12,ENE,69,8.0,13.0,87,0.00,,,0.00,meteohub,2013-01-18 13:02:00,
2013-01-18 05:07:00,37.6,34.0,30.12,ENE,68,9.0,13.0,87,0.00,,,0.00,meteohub,2013-01-18 13:07:00,
2013-01-18 05:12:00,37.2,34.0,30.12,ENE,69,9.0,12.0,88,0.00,,,0.00,meteohub,2013-01-18 13:12:00,
2013-01-18 05:17:00,37.2,34.3,30.12,ENE,65,10.0,11.0,89,0.00,,,0.00,meteohub,2013-01-18 13:17:00,
2013-01-18 05:22:00,37.2,34.3,30.12,ENE,67,10.0,12.0,89,0.00,,,0.00,meteohub,2013-01-18 13:22:00,
2013-01-18 05:27:00,37.0,34.2,30.12,ENE,62,12.0,12.0,89,0.00,,,0.00,meteohub,2013-01-18 13:27:00,
2013-01-18 05:32:00,37.0,34.3,30.12,ENE,64,10.0,13.0,90,0.00,,,0.00,meteohub,2013-01-18 13:32:00,
2013-01-18 05:37:00,37.0,34.3,30.12,ENE,63,10.0,13.0,90,0.00,,,0.00,meteohub,2013-01-18 13:37:00,
2013-01-18 05:42:00,37.0,34.3,30.12,ENE,63,10.0,13.0,90,0.00,,,0.00,meteohub,2013-01-18 13:42:00,
2013-01-18 05:47:00,36.9,34.2,30.12,ENE,63,9.0,12.0,90,0.00,,,0.00,meteohub,2013-01-18 13:47:00,
2013-01-18 05:52:00,36.7,34.0,30.12,ENE,63,9.0,12.0,90,0.00,,,0.00,meteohub,2013-01-18 13:52:00,
2013-01-18 05:57:00,36.7,34.0,30.12,ENE,65,10.0,11.0,90,0.00,,,0.00,meteohub,2013-01-18 13:57:00,
2013-01-18 06:02:00,36.9,34.5,30.12,ENE,66,7.0,11.0,91,0.00,,,0.00,meteohub,2013-01-18 14:02:00,
2013-01-18 06:07:00,36.7,34.3,30.12,ENE,65,9.0,11.0,91,0.00,,,0.00,meteohub,2013-01-18 14:07:00,
2013-01-18 06:12:00,36.5,33.8,30.12,ENE,69,8.0,11.0,90,0.00,,,0.00,meteohub,2013-01-18 14:12:00,
2013-01-18 06:17:00,36.3,34.0,30.12,ENE,71,7.0,10.0,91,0.00,,,0.00,meteohub,2013-01-18 14:17:00,
2013-01-18 06:22:00,36.3,34.2,30.12,ENE,67,8.0,10.0,92,0.00,,,0.00,meteohub,2013-01-18 14:22:00,
2013-01-18 06:27:00,36.1,33.8,30.13,ENE,66,8.0,9.0,91,0.00,,,0.00,meteohub,2013-01-18 14:27:00,
2013-01-18 06:32:00,36.3,34.0,30.13,ENE,67,9.0,10.0,91,0.00,,,0.00,meteohub,2013-01-18 14:32:00,
2013-01-18 06:37:00,36.3,34.0,30.13,ENE,68,8.0,10.0,91,0.00,,,0.00,meteohub,2013-01-18 14:37:00,
2013-01-18 06:42:00,36.1,33.8,30.13,ENE,71,7.0,10.0,91,0.00,,,0.00,meteohub,2013-01-18 14:42:00,
2013-01-18 06:47:00,36.0,33.6,30.13,ENE,73,8.0,10.0,91,0.00,,,0.00,meteohub,2013-01-18 14:47:00,
2013-01-18 06:52:00,35.8,33.6,30.13,ENE,75,9.0,9.0,92,0.00,,,0.00,meteohub,2013-01-18 14:52:00,
2013-01-18 06:57:00,35.8,33.6,30.13,ENE,73,9.0,9.0,92,0.00,,,0.00,meteohub,2013-01-18 14:57:00,
2013-01-18 07:02:00,36.1,34.0,30.13,ENE,74,9.0,10.0,92,0.00,,,0.00,meteohub,2013-01-18 15:02:00,
2013-01-18 07:07:00,36.3,34.2,30.13,ENE,73,8.0,10.0,92,0.00,,,0.00,meteohub,2013-01-18 15:07:00,
2013-01-18 07:12:00,36.1,34.0,30.13,ENE,67,8.0,10.0,92,0.00,,,0.00,meteohub,2013-01-18 15:12:00,
2013-01-18 07:17:00,36.3,34.2,30.13,ENE,68,10.0,10.0,92,0.00,,,0.00,meteohub,2013-01-18 15:17:00,
2013-01-18 07:22:00,36.1,33.8,30.13,ENE,67,9.0,11.0,91,0.00,,,0.00,meteohub,2013-01-18 15:22:00,
2013-01-18 07:27:00,35.8,33.1,30.14,ENE,67,9.0,11.0,90,0.00,,,0.00,meteohub,2013-01-18 15:27:00,
2013-01-18 07:32:00,35.4,32.7,30.14,ENE,69,8.0,11.0,90,0.00,,,0.00,meteohub,2013-01-18 15:32:00,
2013-01-18 07:37:00,35.4,33.1,30.14,ENE,69,9.0,10.0,91,0.00,,,0.00,meteohub,2013-01-18 15:37:00,
2013-01-18 07:42:00,35.4,33.1,30.14,ENE,67,8.0,10.0,91,0.00,,,0.00,meteohub,2013-01-18 15:42:00,
2013-01-18 07:47:00,36.0,34.2,30.14,ENE,63,10.0,10.0,93,0.00,,,0.00,meteohub,2013-01-18 15:47:00,
2013-01-18 07:52:00,36.7,34.5,30.14,ENE,64,10.0,11.0,92,0.00,,,0.00,meteohub,2013-01-18 15:52:00,
2013-01-18 07:57:00,37.2,35.1,30.15,ENE,63,10.0,12.0,92,0.00,,,0.00,meteohub,2013-01-18 15:57:00,
2013-01-18 08:02:00,37.2,34.9,30.15,ENE,61,11.0,12.0,91,0.00,,,0.00,meteohub,2013-01-18 16:02:00,
2013-01-18 08:07:00,37.2,34.5,30.15,ENE,65,8.0,12.0,90,0.00,,,0.00,meteohub,2013-01-18 16:07:00,
2013-01-18 08:12:00,37.2,34.5,30.15,ENE,64,8.0,12.0,90,0.00,,,0.00,meteohub,2013-01-18 16:12:00,
2013-01-18 08:17:00,37.2,34.5,30.15,ENE,65,8.0,12.0,90,0.00,,,0.00,meteohub,2013-01-18 16:17:00,
2013-01-18 08:27:00,37.8,35.1,30.16,ENE,60,10.0,12.0,90,0.00,,,0.00,meteohub,2013-01-18 16:27:00,
2013-01-18 08:32:00,37.9,35.2,30.16,ENE,62,9.0,12.0,90,0.00,,,0.00,meteohub,2013-01-18 16:32:00,
2013-01-18 08:37:00,38.1,35.4,30.16,ENE,65,9.0,13.0,90,0.00,,,0.00,meteohub,2013-01-18 16:37:00,
2013-01-18 08:42:00,38.3,35.6,30.17,ENE,61,11.0,13.0,90,0.00,,,0.00,meteohub,2013-01-18 16:42:00,
2013-01-18 08:47:00,38.5,35.8,30.17,ENE,62,10.0,13.0,90,0.00,,,0.00,meteohub,2013-01-18 16:47:00,
2013-01-18 08:52:00,38.7,36.0,30.17,ENE,65,10.0,13.0,90,0.00,,,0.00,meteohub,2013-01-18 16:52:00,
2013-01-18 08:57:00,39.0,36.3,30.17,ENE,65,9.0,13.0,90,0.00,,,0.00,meteohub,2013-01-18 16:57:00,
2013-01-18 09:02:00,39.2,36.3,30.17,ENE,63,11.0,13.0,89,0.00,,,0.00,meteohub,2013-01-18 17:02:00,
2013-01-18 09:07:00,39.4,36.5,30.17,ENE,66,9.0,13.0,89,0.00,,,0.00,meteohub,2013-01-18 17:07:00,
2013-01-18 09:12:00,39.6,36.5,30.17,ENE,65,8.0,13.0,89,0.00,,,0.00,meteohub,2013-01-18 17:12:00,
2013-01-18 09:17:00,39.6,36.5,30.17,ENE,59,11.0,13.0,89,0.00,,,0.00,meteohub,2013-01-18 17:17:00,
2013-01-18 09:22:00,39.9,36.9,30.17,ENE,57,10.0,13.0,89,0.00,,,0.00,meteohub,2013-01-18 17:22:00,
2013-01-18 09:27:00,40.5,37.4,30.17,ENE,74,7.0,13.0,89,0.00,,,0.00,meteohub,2013-01-18 17:27:00,
2013-01-18 09:32:00,40.8,37.6,30.17,ENE,74,8.0,12.0,88,0.00,,,0.00,meteohub,2013-01-18 17:32:00,
2013-01-18 09:42:00,41.7,38.5,30.17,ENE,78,10.0,12.0,88,0.00,,,0.00,meteohub,2013-01-18 17:42:00,
2013-01-18 09:47:00,41.9,38.7,30.17,ENE,78,9.0,13.0,88,0.00,,,0.00,meteohub,2013-01-18 17:47:00,
2013-01-18 09:52:00,41.9,38.3,30.17,ENE,78,9.0,13.0,87,0.00,,,0.00,meteohub,2013-01-18 17:52:00,
2013-01-18 09:57:00,41.9,38.7,30.18,East,80,10.0,13.0,88,0.00,,,0.00,meteohub,2013-01-18 17:57:00,
2013-01-18 10:02:00,42.3,38.7,30.18,ENE,74,10.0,13.0,87,0.00,,,0.00,meteohub,2013-01-18 18:02:00,
2013-01-18 10:07:00,42.6,38.7,30.18,ENE,77,9.0,13.0,86,0.00,,,0.00,meteohub,2013-01-18 18:07:00,
2013-01-18 10:12:00,43.0,39.0,30.18,East,79,8.0,11.0,86,0.00,,,0.00,meteohub,2013-01-18 18:12:00,
2013-01-18 10:17:00,43.7,40.1,30.18,East,82,6.0,11.0,87,0.00,,,0.00,meteohub,2013-01-18 18:17:00,
2013-01-18 10:22:00,44.6,40.5,30.18,ENE,76,8.0,11.0,85,0.00,,,0.00,meteohub,2013-01-18 18:22:00,
2013-01-18 10:27:00,45.1,40.6,30.18,ENE,76,7.0,10.0,84,0.00,,,0.00,meteohub,2013-01-18 18:27:00,
2013-01-18 10:32:00,45.9,41.4,30.18,ENE,73,7.0,9.0,84,0.00,,,0.00,meteohub,2013-01-18 18:32:00,
2013-01-18 10:37:00,46.4,41.5,30.18,ENE,60,5.0,10.0,83,0.00,,,0.00,meteohub,2013-01-18 18:37:00,
2013-01-18 10:42:00,47.1,41.9,30.17,East,80,6.0,10.0,82,0.00,,,0.00,meteohub,2013-01-18 18:42:00,
2013-01-18 10:47:00,48.2,42.3,30.17,ENE,72,5.0,9.0,80,0.00,,,0.00,meteohub,2013-01-18 18:47:00,
2013-01-18 10:52:00,48.9,42.4,30.17,ENE,76,8.0,9.0,78,0.00,,,0.00,meteohub,2013-01-18 18:52:00,
2013-01-18 10:57:00,49.6,42.4,30.17,ENE,75,9.0,10.0,76,0.00,,,0.00,meteohub,2013-01-18 18:57:00,
2013-01-18 11:02:00,50.2,42.3,30.17,East,79,7.0,11.0,74,0.00,,,0.00,meteohub,2013-01-18 19:02:00,
2013-01-18 11:07:00,50.5,42.3,30.17,ENE,73,8.0,12.0,73,0.00,,,0.00,meteohub,2013-01-18 19:07:00,
2013-01-18 11:12:00,50.7,42.1,30.17,East,80,7.0,12.0,72,0.00,,,0.00,meteohub,2013-01-18 19:12:00,
2013-01-18 11:17:00,51.3,42.3,30.17,East,81,6.0,10.0,71,0.00,,,0.00,meteohub,2013-01-18 19:17:00,
2013-01-18 11:22:00,51.4,41.9,30.17,ENE,76,7.0,10.0,70,0.00,,,0.00,meteohub,2013-01-18 19:22:00,
2013-01-18 11:27:00,52.0,42.1,30.16,ENE,76,7.0,10.0,69,0.00,,,0.00,meteohub,2013-01-18 19:27:00,
2013-01-18 11:32:00,52.5,42.3,30.16,East,99,10.0,10.0,68,0.00,,,0.00,meteohub,2013-01-18 19:32:00,
2013-01-18 11:42:00,52.9,41.9,30.15,ENE,72,8.0,10.0,66,0.00,,,0.00,meteohub,2013-01-18 19:42:00,
2013-01-18 11:47:00,53.4,43.2,30.15,ENE,68,8.0,11.0,68,0.00,,,0.00,meteohub,2013-01-18 19:47:00,
2013-01-18 11:52:00,53.4,42.3,30.15,East,85,6.0,11.0,66,0.00,,,0.00,meteohub,2013-01-18 19:52:00,
2013-01-18 11:57:00,53.8,41.9,30.14,East,82,5.0,11.0,64,0.00,,,0.00,meteohub,2013-01-18 19:57:00,
2013-01-18 12:02:00,54.1,41.0,30.14,ENE,77,9.0,10.0,61,0.00,,,0.00,meteohub,2013-01-18 20:02:00,
2013-01-18 12:07:00,54.1,41.9,30.14,ENE,74,4.0,10.0,63,0.00,,,0.00,meteohub,2013-01-18 20:07:00,
2013-01-18 12:12:00,54.3,41.5,30.13,East,82,5.0,10.0,62,0.00,,,0.00,meteohub,2013-01-18 20:12:00,
2013-01-18 12:17:00,54.7,41.5,30.13,ENE,68,8.0,10.0,61,0.00,,,0.00,meteohub,2013-01-18 20:17:00,
2013-01-18 12:22:00,54.9,41.2,30.13,East,81,6.0,10.0,60,0.00,,,0.00,meteohub,2013-01-18 20:22:00,
2013-01-18 12:27:00,55.2,42.4,30.13,East,80,6.0,10.0,62,0.00,,,0.00,meteohub,2013-01-18 20:27:00,
2013-01-18 12:32:00,55.6,43.2,30.13,East,83,7.0,10.0,63,0.00,,,0.00,meteohub,2013-01-18 20:32:00,
2013-01-18 12:42:00,55.9,41.9,30.12,East,85,7.0,9.0,59,0.00,,,0.00,meteohub,2013-01-18 20:42:00,
2013-01-18 12:47:00,56.1,41.9,30.12,ESE,107,10.0,10.0,59,0.00,,,0.00,meteohub,2013-01-18 20:47:00,
2013-01-18 12:52:00,56.8,41.7,30.12,East,100,8.0,11.0,57,0.00,,,0.00,meteohub,2013-01-18 20:52:00,
2013-01-18 12:57:00,56.8,39.9,30.12,ESE,102,7.0,11.0,53,0.00,,,0.00,meteohub,2013-01-18 20:57:00,
2013-01-18 13:02:00,57.0,40.5,30.12,East,101,7.0,11.0,54,0.00,,,0.00,meteohub,2013-01-18 21:02:00,
2013-01-18 13:07:00,57.2,41.7,30.12,East,92,8.0,11.0,56,0.00,,,0.00,meteohub,2013-01-18 21:07:00,
2013-01-18 13:12:00,57.6,41.0,30.11,East,85,6.0,10.0,54,0.00,,,0.00,meteohub,2013-01-18 21:12:00,
2013-01-18 13:17:00,57.6,41.9,30.11,East,85,8.0,10.0,56,0.00,,,0.00,meteohub,2013-01-18 21:17:00,
2013-01-18 13:22:00,57.6,41.9,30.11,East,90,8.0,11.0,56,0.00,,,0.00,meteohub,2013-01-18 21:22:00,
2013-01-18 13:27:00,57.9,40.8,30.11,East,83,7.0,11.0,53,0.00,,,0.00,meteohub,2013-01-18 21:27:00,
2013-01-18 13:32:00,57.9,40.8,30.11,East,89,9.0,10.0,53,0.00,,,0.00,meteohub,2013-01-18 21:32:00,
2013-01-18 13:37:00,57.9,40.5,30.11,East,84,8.0,11.0,52,0.00,,,0.00,meteohub,2013-01-18 21:37:00,
2013-01-18 13:42:00,57.9,39.9,30.10,East,84,7.0,11.0,51,0.00,,,0.00,meteohub,2013-01-18 21:42:00,
2013-01-18 13:47:00,58.1,39.6,30.10,ENE,78,5.0,11.0,50,0.00,,,0.00,meteohub,2013-01-18 21:47:00,
2013-01-18 13:52:00,58.3,40.3,30.10,East,88,6.0,11.0,51,0.00,,,0.00,meteohub,2013-01-18 21:52:00,
2013-01-18 13:57:00,58.6,40.1,30.10,East,86,8.0,10.0,50,0.00,,,0.00,meteohub,2013-01-18 21:57:00,
2013-01-18 14:02:00,58.6,40.6,30.10,ENE,78,8.0,10.0,51,0.00,,,0.00,meteohub,2013-01-18 22:02:00,
2013-01-18 14:07:00,58.6,39.6,30.10,East,80,9.0,10.0,49,0.00,,,0.00,meteohub,2013-01-18 22:07:00,
2013-01-18 14:12:00,58.6,41.0,30.10,East,80,9.0,10.0,52,0.00,,,0.00,meteohub,2013-01-18 22:12:00,
2013-01-18 14:22:00,58.6,41.0,30.10,East,88,8.0,10.0,52,0.00,,,0.00,meteohub,2013-01-18 22:22:00,
2013-01-18 14:27:00,58.3,42.3,30.10,ESE,105,8.0,10.0,55,0.00,,,0.00,meteohub,2013-01-18 22:27:00,
2013-01-18 14:32:00,58.3,42.6,30.10,East,95,7.0,11.0,56,0.00,,,0.00,meteohub,2013-01-18 22:32:00,
2013-01-18 14:37:00,58.5,43.3,30.10,East,98,5.0,11.0,57,0.00,,,0.00,meteohub,2013-01-18 22:37:00,
2013-01-18 14:42:00,58.5,41.4,30.10,ESE,103,8.0,10.0,53,0.00,,,0.00,meteohub,2013-01-18 22:42:00,
2013-01-18 14:47:00,58.3,41.7,30.10,East,96,6.0,10.0,54,0.00,,,0.00,meteohub,2013-01-18 22:47:00,
2013-01-18 14:52:00,58.5,41.9,30.10,East,100,5.0,10.0,54,0.00,,,0.00,meteohub,2013-01-18 22:52:00,
2013-01-18 14:57:00,58.6,43.0,30.09,ESE,103,8.0,10.0,56,0.00,,,0.00,meteohub,2013-01-18 22:57:00,
2013-01-18 15:07:00,58.5,41.9,30.09,ESE,107,8.0,11.0,54,0.00,,,0.00,meteohub,2013-01-18 23:07:00,
2013-01-18 15:12:00,58.6,41.0,30.09,ESE,111,4.0,11.0,52,0.00,,,0.00,meteohub,2013-01-18 23:12:00,
2013-01-18 15:17:00,58.6,41.0,30.09,ESE,102,4.0,11.0,52,0.00,,,0.00,meteohub,2013-01-18 23:17:00,
2013-01-18 15:22:00,58.6,42.4,30.09,East,96,5.0,11.0,55,0.00,,,0.00,meteohub,2013-01-18 23:22:00,
2013-01-18 15:27:00,58.8,42.3,30.09,ESE,105,7.0,11.0,54,0.00,,,0.00,meteohub,2013-01-18 23:27:00,
2013-01-18 15:32:00,58.8,42.3,30.09,East,98,5.0,10.0,54,0.00,,,0.00,meteohub,2013-01-18 23:32:00,
2013-01-18 15:37:00,58.6,43.0,30.09,East,99,6.0,10.0,56,0.00,,,0.00,meteohub,2013-01-18 23:37:00,
2013-01-18 15:42:00,58.1,42.4,30.09,East,90,6.0,10.0,56,0.00,,,0.00,meteohub,2013-01-18 23:42:00,
2013-01-18 15:47:00,57.9,42.3,30.09,East,92,6.0,9.0,56,0.00,,,0.00,meteohub,2013-01-18 23:47:00,
2013-01-18 15:52:00,57.7,41.7,30.09,East,95,6.0,8.0,55,0.00,,,0.00,meteohub,2013-01-18 23:52:00,
2013-01-18 15:57:00,57.2,42.1,30.09,East,95,6.0,8.0,57,0.00,,,0.00,meteohub,2013-01-18 23:57:00,
2013-01-18 16:02:00,56.8,42.3,30.09,East,97,3.0,8.0,58,0.00,,,0.00,meteohub,2013-01-19 00:02:00,
2013-01-18 16:07:00,56.5,43.2,30.09,East,97,5.0,8.0,61,0.00,,,0.00,meteohub,2013-01-19 00:07:00,
2013-01-18 16:12:00,55.9,41.4,30.09,East,99,5.0,7.0,58,0.00,,,0.00,meteohub,2013-01-19 00:12:00,
2013-01-18 16:17:00,55.9,41.4,30.09,East,99,5.0,6.0,58,0.00,,,0.00,meteohub,2013-01-19 00:17:00,
2013-01-18 16:22:00,55.8,41.2,30.09,East,101,8.0,8.0,58,0.00,,,0.00,meteohub,2013-01-19 00:22:00,
2013-01-18 16:27:00,55.9,41.0,30.09,ESE,102,5.0,8.0,57,0.00,,,0.00,meteohub,2013-01-19 00:27:00,
2013-01-18 16:32:00,55.9,41.0,30.09,ESE,103,5.0,8.0,57,0.00,,,0.00,meteohub,2013-01-19 00:32:00,
2013-01-18 16:37:00,55.8,41.2,30.09,ESE,103,4.0,8.0,58,0.00,,,0.00,meteohub,2013-01-19 00:37:00,
2013-01-18 16:42:00,55.2,40.3,30.09,ESE,103,5.0,8.0,57,0.00,,,0.00,meteohub,2013-01-19 00:42:00,
2013-01-18 16:47:00,55.2,39.7,30.09,East,101,6.0,7.0,56,0.00,,,0.00,meteohub,2013-01-19 00:47:00,
2013-01-18 16:52:00,55.2,39.7,30.09,East,100,6.0,7.0,56,0.00,,,0.00,meteohub,2013-01-19 00:52:00,
2013-01-18 16:57:00,55.0,40.1,30.10,East,97,5.0,7.0,57,0.00,,,0.00,meteohub,2013-01-19 00:57:00,
2013-01-18 17:02:00,54.3,39.4,30.10,East,97,6.0,6.0,57,0.00,,,0.00,meteohub,2013-01-19 01:02:00,
2013-01-18 17:07:00,54.1,39.2,30.10,East,96,6.0,7.0,57,0.00,,,0.00,meteohub,2013-01-19 01:07:00,
2013-01-18 17:17:00,54.1,38.8,30.10,East,97,5.0,7.0,56,0.00,,,0.00,meteohub,2013-01-19 01:17:00,
2013-01-18 17:22:00,54.0,38.7,30.10,East,98,6.0,6.0,56,0.00,,,0.00,meteohub,2013-01-19 01:22:00,
2013-01-18 17:27:00,53.8,37.9,30.10,East,98,6.0,6.0,55,0.00,,,0.00,meteohub,2013-01-19 01:27:00,
2013-01-18 17:32:00,54.0,38.1,30.10,East,98,5.0,6.0,55,0.00,,,0.00,meteohub,2013-01-19 01:32:00,
2013-01-18 17:37:00,54.0,37.8,30.10,East,98,5.0,6.0,54,0.00,,,0.00,meteohub,2013-01-19 01:37:00,
2013-01-18 17:42:00,53.4,37.6,30.10,East,96,6.0,7.0,55,0.00,,,0.00,meteohub,2013-01-19 01:42:00,
2013-01-18 17:47:00,52.5,36.9,30.10,East,96,7.0,7.0,55,0.00,,,0.00,meteohub,2013-01-19 01:47:00,
2013-01-18 17:52:00,52.5,36.9,30.10,East,98,7.0,7.0,55,0.00,,,0.00,meteohub,2013-01-19 01:52:00,
2013-01-18 17:57:00,52.0,36.9,30.10,East,98,6.0,8.0,56,0.00,,,0.00,meteohub,2013-01-19 01:57:00,
2013-01-18 18:02:00,52.3,36.7,30.10,East,98,7.0,8.0,55,0.00,,,0.00,meteohub,2013-01-19 02:02:00,
2013-01-18 18:07:00,52.7,37.0,30.10,East,96,7.0,8.0,55,0.00,,,0.00,meteohub,2013-01-19 02:07:00,
2013-01-18 18:12:00,52.9,37.2,30.10,East,96,7.0,8.0,55,0.00,,,0.00,meteohub,2013-01-19 02:12:00,
2013-01-18 18:17:00,52.3,37.0,30.10,East,94,6.0,8.0,56,0.00,,,0.00,meteohub,2013-01-19 02:17:00,
2013-01-18 18:22:00,52.0,37.2,30.10,East,94,6.0,7.0,57,0.00,,,0.00,meteohub,2013-01-19 02:22:00,
2013-01-18 18:27:00,51.8,37.6,30.10,East,94,7.0,7.0,58,0.00,,,0.00,meteohub,2013-01-19 02:27:00,
2013-01-18 18:32:00,51.4,37.2,30.10,East,94,7.0,8.0,58,0.00,,,0.00,meteohub,2013-01-19 02:32:00,
2013-01-18 18:37:00,51.4,37.2,30.10,East,94,6.0,8.0,58,0.00,,,0.00,meteohub,2013-01-19 02:37:00,
2013-01-18 18:42:00,51.1,36.9,30.10,East,94,7.0,8.0,58,0.00,,,0.00,meteohub,2013-01-19 02:42:00,
2013-01-18 18:52:00,50.5,36.3,30.10,East,94,7.0,7.0,58,0.00,,,0.00,meteohub,2013-01-19 02:52:00,
2013-01-18 19:02:00,50.2,36.9,30.11,East,93,6.0,7.0,60,0.00,,,0.00,meteohub,2013-01-19 03:02:00,
2013-01-18 19:07:00,49.5,36.5,30.11,East,90,6.0,7.0,61,0.00,,,0.00,meteohub,2013-01-19 03:07:00,
2013-01-18 19:17:00,49.6,36.3,30.11,East,91,7.0,7.0,60,0.00,,,0.00,meteohub,2013-01-19 03:17:00,
2013-01-18 19:27:00,49.8,36.1,30.10,East,96,7.0,8.0,59,0.00,,,0.00,meteohub,2013-01-19 03:27:00,
2013-01-18 19:37:00,49.5,35.8,30.10,East,101,6.0,8.0,59,0.00,,,0.00,meteohub,2013-01-19 03:37:00,
2013-01-18 19:42:00,49.5,35.8,30.10,East,101,7.0,8.0,59,0.00,,,0.00,meteohub,2013-01-19 03:42:00,
2013-01-18 19:47:00,49.3,35.6,30.10,ESE,102,7.0,8.0,59,0.00,,,0.00,meteohub,2013-01-19 03:47:00,
2013-01-18 19:57:00,49.5,35.2,30.11,ESE,106,7.0,8.0,58,0.00,,,0.00,meteohub,2013-01-19 03:57:00,
2013-01-18 20:07:00,49.6,34.5,30.11,ESE,106,7.0,8.0,56,0.00,,,0.00,meteohub,2013-01-19 04:07:00,
2013-01-18 20:12:00,49.6,34.5,30.11,East,98,7.0,8.0,56,0.00,,,0.00,meteohub,2013-01-19 04:12:00,
2013-01-18 20:17:00,49.6,34.5,30.11,East,92,7.0,8.0,56,0.00,,,0.00,meteohub,2013-01-19 04:17:00,
2013-01-18 20:22:00,49.3,34.7,30.11,East,92,7.0,8.0,57,0.00,,,0.00,meteohub,2013-01-19 04:22:00,
2013-01-18 20:27:00,49.1,34.9,30.11,East,92,7.0,8.0,58,0.00,,,0.00,meteohub,2013-01-19 04:27:00,
2013-01-18 20:32:00,48.9,34.9,30.11,East,96,8.0,8.0,58,0.00,,,0.00,meteohub,2013-01-19 04:32:00,
2013-01-18 20:37:00,48.9,34.9,30.11,East,96,8.0,9.0,58,0.00,,,0.00,meteohub,2013-01-19 04:37:00,
2013-01-18 20:42:00,48.9,34.9,30.11,East,97,7.0,9.0,58,0.00,,,0.00,meteohub,2013-01-19 04:42:00,
2013-01-18 20:47:00,48.6,34.9,30.11,East,96,8.0,9.0,59,0.00,,,0.00,meteohub,2013-01-19 04:47:00,
2013-01-18 20:52:00,48.4,34.7,30.11,East,95,7.0,9.0,59,0.00,,,0.00,meteohub,2013-01-19 04:52:00,
2013-01-18 20:57:00,48.0,34.9,30.11,East,94,7.0,9.0,60,0.00,,,0.00,meteohub,2013-01-19 04:57:00,
2013-01-18 21:02:00,48.0,34.9,30.11,East,93,7.0,9.0,60,0.00,,,0.00,meteohub,2013-01-19 05:02:00,
2013-01-18 21:07:00,47.7,35.2,30.11,East,90,7.0,8.0,62,0.00,,,0.00,meteohub,2013-01-19 05:07:00,
2013-01-18 21:12:00,47.3,35.4,30.12,East,90,6.0,8.0,63,0.00,,,0.00,meteohub,2013-01-19 05:12:00,
2013-01-18 21:17:00,47.3,34.9,30.12,East,89,7.0,8.0,62,0.00,,,0.00,meteohub,2013-01-19 05:17:00,
2013-01-18 21:22:00,47.1,35.2,30.12,East,84,5.0,8.0,63,0.00,,,0.00,meteohub,2013-01-19 05:22:00,
2013-01-18 21:27:00,46.8,35.2,30.12,East,80,7.0,8.0,64,0.00,,,0.00,meteohub,2013-01-19 05:27:00,
2013-01-18 21:32:00,46.8,35.2,30.12,ENE,71,7.0,8.0,64,0.00,,,0.00,meteohub,2013-01-19 05:32:00,
2013-01-18 21:37:00,46.9,35.4,30.12,ENE,72,5.0,9.0,64,0.00,,,0.00,meteohub,2013-01-19 05:37:00,
2013-01-18 21:42:00,46.6,35.4,30.12,ENE,70,7.0,9.0,65,0.00,,,0.00,meteohub,2013-01-19 05:42:00,
2013-01-18 21:52:00,46.0,35.2,30.12,ENE,70,8.0,10.0,66,0.00,,,0.00,meteohub,2013-01-19 05:52:00,
2013-01-18 22:02:00,45.7,35.4,30.12,ENE,69,7.0,10.0,67,0.00,,,0.00,meteohub,2013-01-19 06:02:00,
2013-01-18 22:07:00,45.7,35.4,30.12,ENE,68,8.0,9.0,67,0.00,,,0.00,meteohub,2013-01-19 06:07:00,
2013-01-18 22:12:00,45.7,35.4,30.12,ENE,67,7.0,9.0,67,0.00,,,0.00,meteohub,2013-01-19 06:12:00,
2013-01-18 22:17:00,45.9,35.1,30.12,ENE,66,7.0,9.0,66,0.00,,,0.00,meteohub,2013-01-19 06:17:00,
2013-01-18 22:22:00,45.9,35.1,30.12,ENE,67,7.0,9.0,66,0.00,,,0.00,meteohub,2013-01-19 06:22:00,
2013-01-18 22:32:00,45.7,35.4,30.12,ENE,67,7.0,8.0,67,0.00,,,0.00,meteohub,2013-01-19 06:32:00,
2013-01-18 22:42:00,45.9,35.6,30.12,ENE,67,7.0,8.0,67,0.00,,,0.00,meteohub,2013-01-19 06:42:00,
2013-01-18 22:47:00,45.9,35.6,30.12,ENE,67,7.0,8.0,67,0.00,,,0.00,meteohub,2013-01-19 06:47:00,
2013-01-18 22:52:00,45.9,35.6,30.12,ENE,67,8.0,8.0,67,0.00,,,0.00,meteohub,2013-01-19 06:52:00,
2013-01-18 23:02:00,46.0,35.2,30.12,ENE,67,7.0,8.0,66,0.00,,,0.00,meteohub,2013-01-19 07:02:00,
2013-01-18 23:07:00,45.9,35.6,30.12,ENE,67,7.0,9.0,67,0.00,,,0.00,meteohub,2013-01-19 07:07:00,
2013-01-18 23:12:00,45.7,35.8,30.12,ENE,66,7.0,9.0,68,0.00,,,0.00,meteohub,2013-01-19 07:12:00,
2013-01-18 23:17:00,45.7,35.8,30.12,ENE,67,8.0,9.0,68,0.00,,,0.00,meteohub,2013-01-19 07:17:00,
2013-01-18 23:22:00,45.5,35.6,30.12,ENE,67,7.0,9.0,68,0.00,,,0.00,meteohub,2013-01-19 07:22:00,
2013-01-18 23:27:00,45.5,36.0,30.12,ENE,67,7.0,8.0,69,0.00,,,0.00,meteohub,2013-01-19 07:27:00,
2013-01-18 23:32:00,45.3,35.8,30.12,ENE,67,7.0,8.0,69,0.00,,,0.00,meteohub,2013-01-19 07:32:00,
2013-01-18 23:37:00,45.1,35.6,30.12,ENE,67,8.0,8.0,69,0.00,,,0.00,meteohub,2013-01-19 07:37:00,
2013-01-18 23:42:00,45.0,35.8,30.12,ENE,67,5.0,8.0,70,0.00,,,0.00,meteohub,2013-01-19 07:42:00,
2013-01-18 23:52:00,44.4,35.6,30.12,ENE,67,5.0,8.0,71,0.00,,,0.00,meteohub,2013-01-19 07:52:00,
2013-01-18 23:57:00,44.1,35.6,30.12,ENE,67,7.0,8.0,72,0.00,,,0.00,meteohub,2013-01-19 07:57:00,